Location: Pescara
(42.4670°N, 14.2170°E)
Time: 17:58:28
(UTC+02:00)

ISS - Pass Details

Date: 17 May 2021
Orbit: 417 x 422 km, 51.6° (Epoch: 18 June)

Event Time Altitude Azimuth Distance (km) Brightness Sun altitude
Rises 00:27:53 0° 295° (WNW) 2,368 0.5 -27.8°
Reaches altitude 10° 00:30:31 10° 317° (NW) 1,505 -0.3 -27.9°
Maximum altitude 00:32:49 17° 360° (N) 1,153 -0.7 -27.9°
Drops below altitude 10° 00:35:08 10° 43° (NE) 1,507 -0.5 -28.0°
Sets 00:37:46 0° 65° (ENE) 2,373 0.3 -28.0°
